| time (UTC) | temp F | wind direction | speed MPH | gust MPH | rain 1hr in | rain 24hr in | rain mn in | humidity % | barometer mb |
| 20260510160526 | 86 | 130 | 2.0 | 6.0 | 0.00 | 0.00 | 0.00 | 15 | 1015.2 |
| 20260510160034 | 86 | 100 | 1.0 | 6.0 | 0.00 | 0.00 | 0.00 | 15 | 1015.3 |
| 20260510155519 | 85 | 102 | 3.0 | 6.0 | 0.00 | 0.00 | 0.00 | 15 | 1015.3 |
| 20260510155016 | 84 | 116 | 3.0 | 6.0 | 0.00 | 0.00 | 0.00 | 16 | 1015.3 |
| 20260510154532 | 84 | 119 | 2.0 | 6.0 | 0.00 | 0.00 | 0.00 | 16 | 1015.3 |
| 20260510154027 | 83 | 110 | 3.0 | 7.0 | 0.00 | 0.00 | 0.00 | 16 | 1015.3 |
| 20260510153523 | 83 | 100 | 2.0 | 8.0 | 0.00 | 0.00 | 0.00 | 17 | 1015.3 |
| 20260510153019 | 82 | 104 | 4.0 | 8.0 | 0.00 | 0.00 | 0.00 | 17 | 1015.3 |
| 20260510152515 | 82 | 119 | 3.0 | 5.0 | 0.00 | 0.00 | 0.00 | 17 | 1015.3 |
| 20260510152014 | 81 | 143 | 2.0 | 5.0 | 0.00 | 0.00 | 0.00 | 18 | 1015.3 |
| 20260510151530 | 81 | 127 | 3.0 | 5.0 | 0.00 | 0.00 | 0.00 | 19 | 1015.3 |
| 20260510151027 | 81 | 124 | 3.0 | 5.0 | 0.00 | 0.00 | 0.00 | 19 | 1015.2 |
| 20260510150523 | 80 | 127 | 2.0 | 5.0 | 0.00 | 0.00 | 0.00 | 20 | 1015.2 |
| 20260510150030 | 79 | 192 | 3.0 | 5.0 | 0.00 | 0.00 | 0.00 | 19 | 1015.2 |
| 20260510145531 | 78 | 106 | 1.0 | 4.0 | 0.00 | 0.00 | 0.00 | 21 | 1015.2 |
| 20260510145027 | 77 | 106 | 2.0 | 4.0 | 0.00 | 0.00 | 0.00 | 21 | 1015.2 |
| 20260510144522 | 77 | 105 | 3.0 | 5.0 | 0.00 | 0.00 | 0.00 | 21 | 1015.2 |
| 20260510144022 | 76 | 105 | 2.0 | 5.0 | 0.00 | 0.00 | 0.00 | 22 | 1015.2 |
| 20260510143518 | 75 | 108 | 2.0 | 5.0 | 0.00 | 0.00 | 0.00 | 23 | 1015.2 |
| 20260510143014 | 75 | 109 | 3.0 | 6.0 | 0.00 | 0.00 | 0.00 | 23 | 1015.2 |
| 20260510142529 | 75 | 110 | 3.0 | 6.0 | 0.00 | 0.00 | 0.00 | 22 | 1015.1 |
| 20260510142025 | 75 | 132 | 3.0 | 6.0 | 0.00 | 0.00 | 0.00 | 22 | 1015.1 |
| 20260510141521 | 75 | 110 | 4.0 | 5.0 | 0.00 | 0.00 | 0.00 | 21 | 1015.1 |
| 20260510141017 | 74 | 135 | 2.0 | 4.0 | 0.00 | 0.00 | 0.00 | 22 | 1015.1 |
| 20260510140516 | 74 | 127 | 1.0 | 3.0 | 0.00 | 0.00 | 0.00 | 23 | 1015.0 |
| 20260510140044 | 73 | 127 | 1.0 | 3.0 | 0.00 | 0.00 | 0.00 | 25 | 1015.0 |
| 20260510135526 | 72 | 127 | 1.0 | 4.0 | 0.00 | 0.00 | 0.00 | 25 | 1015.0 |
| 20260510135022 | 71 | 127 | 2.0 | 4.0 | 0.00 | 0.00 | 0.00 | 26 | 1014.9 |
| 20260510134517 | 71 | 129 | 2.0 | 5.0 | 0.00 | 0.00 | 0.00 | 26 | 1014.9 |
| 20260510134013 | 71 | 132 | 3.0 | 5.0 | 0.00 | 0.00 | 0.00 | 26 | 1014.9 |
| 20260510133529 | 70 | 164 | 2.0 | 3.0 | 0.00 | 0.00 | 0.00 | 26 | 1014.8 |
| 20260510133028 | 70 | 198 | 2.0 | 3.0 | 0.00 | 0.00 | 0.00 | 27 | 1014.7 |
| 20260510132524 | 70 | 210 | 1.0 | 3.0 | 0.00 | 0.00 | 0.00 | 27 | 1014.6 |
| 20260510132020 | 69 | 211 | 1.0 | 3.0 | 0.00 | 0.00 | 0.00 | 26 | 1014.7 |
| 20260510131516 | 69 | 211 | 0.0 | 2.0 | 0.00 | 0.00 | 0.00 | 27 | 1014.6 |
| 20260510131031 | 68 | 164 | 0.0 | 2.0 | 0.00 | 0.00 | 0.00 | 28 | 1014.5 |
| 20260510130527 | 68 | 164 | 0.0 | 3.0 | 0.00 | 0.00 | 0.00 | 27 | 1014.5 |
| 20260510130034 | 67 | 164 | 2.0 | 4.0 | 0.00 | 0.00 | 0.00 | 28 | 1014.4 |
| 20260510125519 | 67 | 164 | 3.0 | 4.0 | 0.00 | 0.00 | 0.00 | 28 | 1014.3 |
| 20260510125015 | 67 | 159 | 1.0 | 3.0 | 0.00 | 0.00 | 0.00 | 28 | 1014.3 |
| 20260510124531 | 66 | 159 | 2.0 | 3.0 | 0.00 | 0.00 | 0.00 | 28 | 1014.3 |
| 20260510124027 | 67 | 159 | 2.0 | 3.0 | 0.00 | 0.00 | 0.00 | 28 | 1014.2 |
| 20260510123522 | 67 | 159 | 2.0 | 3.0 | 0.00 | 0.00 | 0.00 | 27 | 1014.0 |
| 20260510123018 | 67 | 164 | 0.0 | 3.0 | 0.00 | 0.00 | 0.00 | 27 | 1014.0 |
| 20260510122514 | 68 | 164 | 1.0 | 4.0 | 0.00 | 0.00 | 0.00 | 26 | 1014.0 |
| 20260510122013 | 68 | 164 | 1.0 | 5.0 | 0.00 | 0.00 | 0.00 | 26 | 1013.9 |
| 20260510121529 | 69 | 185 | 3.0 | 6.0 | 0.00 | 0.00 | 0.00 | 25 | 1013.8 |
| 20260510121025 | 69 | 191 | 2.0 | 6.0 | 0.00 | 0.00 | 0.00 | 25 | 1013.9 |
| 20260510120521 | 69 | 209 | 1.0 | 3.0 | 0.00 | 0.00 | 0.00 | 25 | 1013.9 |
| 20260510120028 | 69 | 209 | 1.0 | 3.0 | 0.00 | 0.00 | 0.00 | 25 | 1013.8 |
| 20260510115529 | 70 | 209 | 2.0 | 3.0 | 0.00 | 0.00 | 0.00 | 24 | 1013.8 |
| 20260510115025 | 70 | 210 | 1.0 | 3.0 | 0.00 | 0.00 | 0.00 | 24 | 1013.7 |
| 20260510114521 | 69 | 210 | 1.0 | 4.0 | 0.00 | 0.00 | 0.00 | 24 | 1013.6 |
| 20260510114020 | 69 | 210 | 2.0 | 4.0 | 0.00 | 0.00 | 0.00 | 25 | 1013.6 |
| 20260510113517 | 68 | 211 | 0.0 | 2.0 | 0.00 | 0.00 | 0.00 | 26 | 1013.5 |
| 20260510113013 | 67 | 211 | 0.0 | 3.0 | 0.00 | 0.00 | 0.00 | 27 | 1013.5 |
| 20260510112528 | 68 | 211 | 2.0 | 3.0 | 0.00 | 0.00 | 0.00 | 26 | 1013.3 |
| 20260510112024 | 68 | 212 | 2.0 | 3.0 | 0.00 | 0.00 | 0.00 | 26 | 1013.4 |
| 20260510111520 | 68 | 212 | 0.0 | 0.0 | 0.00 | 0.00 | 0.00 | 25 | 1013.4 |
| 20260510111017 | 68 | 211 | 0.0 | 2.0 | 0.00 | 0.00 | 0.00 | 26 | 1013.3 |
| 20260510110516 | 69 | 211 | 1.0 | 2.0 | 0.00 | 0.00 | 0.00 | 25 | 1013.3 |
| 20260510110045 | 69 | 212 | 1.0 | 2.0 | 0.00 | 0.00 | 0.00 | 24 | 1013.3 |
| 20260510105526 | 69 | 212 | 1.0 | 2.0 | 0.00 | 0.00 | 0.00 | 24 | 1013.3 |
| 20260510105022 | 70 | 211 | 0.0 | 2.0 | 0.00 | 0.00 | 0.00 | 23 | 1013.4 |
| 20260510104518 | 71 | 211 | 0.0 | 2.0 | 0.00 | 0.00 | 0.00 | 22 | 1013.3 |
| 20260510104014 | 71 | 211 | 0.0 | 2.0 | 0.00 | 0.00 | 0.00 | 22 | 1013.4 |
| 20260510103529 | 72 | 211 | 1.0 | 3.0 | 0.00 | 0.00 | 0.00 | 21 | 1013.4 |
| 20260510103029 | 72 | 212 | 2.0 | 3.0 | 0.00 | 0.00 | 0.00 | 21 | 1013.4 |
| 20260510102526 | 72 | 211 | 2.0 | 3.0 | 0.00 | 0.00 | 0.00 | 21 | 1013.4 |
| 20260510102022 | 72 | 210 | 2.0 | 3.0 | 0.00 | 0.00 | 0.00 | 21 | 1013.4 |
| 20260510101517 | 72 | 210 | 2.0 | 3.0 | 0.00 | 0.00 | 0.00 | 21 | 1013.4 |
| 20260510101013 | 72 | 208 | 2.0 | 3.0 | 0.00 | 0.00 | 0.00 | 21 | 1013.3 |
| 20260510100529 | 72 | 208 | 2.0 | 3.0 | 0.00 | 0.00 | 0.00 | 21 | 1013.4 |
| 20260510100036 | 72 | 208 | 1.0 | 3.0 | 0.00 | 0.00 | 0.00 | 21 | 1013.4 |
| 20260510095521 | 73 | 208 | 2.0 | 3.0 | 0.00 | 0.00 | 0.00 | 21 | 1013.4 |
| 20260510095017 | 73 | 208 | 2.0 | 3.0 | 0.00 | 0.00 | 0.00 | 21 | 1013.3 |
| 20260510094512 | 73 | 208 | 2.0 | 3.0 | 0.00 | 0.00 | 0.00 | 20 | 1013.3 |
| 20260510094028 | 74 | 208 | 1.0 | 3.0 | 0.00 | 0.00 | 0.00 | 20 | 1013.3 |
| 20260510093524 | 74 | 208 | 2.0 | 3.0 | 0.00 | 0.00 | 0.00 | 20 | 1013.3 |
| 20260510093021 | 75 | 207 | 1.0 | 4.0 | 0.00 | 0.00 | 0.00 | 19 | 1013.2 |
| 20260510092517 | 76 | 207 | 2.0 | 4.0 | 0.00 | 0.00 | 0.00 | 18 | 1013.3 |
| 20260510092017 | 77 | 207 | 3.0 | 5.0 | 0.00 | 0.00 | 0.00 | 18 | 1013.2 |
| 20260510091513 | 76 | 204 | 3.0 | 4.0 | 0.00 | 0.00 | 0.00 | 18 | 1013.3 |
| 20260510091029 | 76 | 198 | 3.0 | 5.0 | 0.00 | 0.00 | 0.00 | 18 | 1013.2 |
| 20260510090525 | 77 | 196 | 3.0 | 5.0 | 0.00 | 0.00 | 0.00 | 18 | 1013.3 |
| 20260510090032 | 77 | 196 | 3.0 | 4.0 | 0.00 | 0.00 | 0.00 | 17 | 1013.2 |
| 20260510085513 | 77 | 144 | 2.0 | 4.0 | 0.00 | 0.00 | 0.00 | 18 | 1013.2 |
| 20260510085029 | 77 | 144 | 1.0 | 4.0 | 0.00 | 0.00 | 0.00 | 17 | 1013.2 |
| 20260510084524 | 77 | 136 | 3.0 | 4.0 | 0.00 | 0.00 | 0.00 | 17 | 1013.2 |
| 20260510084025 | 77 | 109 | 3.0 | 4.0 | 0.00 | 0.00 | 0.00 | 17 | 1013.2 |
| 20260510083521 | 77 | 104 | 3.0 | 4.0 | 0.00 | 0.00 | 0.00 | 17 | 1013.0 |
| 20260510083017 | 77 | 81 | 2.0 | 3.0 | 0.00 | 0.00 | 0.00 | 18 | 1013.1 |
| 20260510082512 | 77 | 58 | 2.0 | 3.0 | 0.00 | 0.00 | 0.00 | 18 | 1013.1 |
| 20260510082028 | 77 | 58 | 2.0 | 3.0 | 0.00 | 0.00 | 0.00 | 18 | 1013.1 |
| 20260510081523 | 77 | 58 | 2.0 | 3.0 | 0.00 | 0.00 | 0.00 | 18 | 1013.0 |
| 20260510081019 | 76 | 58 | 2.0 | 3.0 | 0.00 | 0.00 | 0.00 | 18 | 1013.0 |
| 20260510080519 | 78 | 58 | 1.0 | 3.0 | 0.00 | 0.00 | 0.00 | 17 | 1013.1 |
| 20260510080027 | 78 | 58 | 1.0 | 3.0 | 0.00 | 0.00 | 0.00 | 17 | 1013.1 |
| 20260510075528 | 78 | 58 | 0.0 | 4.0 | 0.00 | 0.00 | 0.00 | 17 | 1013.2 |
| 20260510075023 | 79 | 58 | 2.0 | 5.0 | 0.00 | 0.00 | 0.00 | 16 | 1013.1 |
| 20260510074519 | 79 | 54 | 2.0 | 4.0 | 0.00 | 0.00 | 0.00 | 16 | 1013.1 |
| 20260510074015 | 80 | 329 | 2.0 | 3.0 | 0.00 | 0.00 | 0.00 | 15 | 1013.1 |
| 20260510073530 | 81 | 328 | 1.0 | 3.0 | 0.00 | 0.00 | 0.00 | 14 | 1013.1 |
| 20260510073030 | 84 | 298 | 0.0 | 7.0 | 0.00 | 0.00 | 0.00 | 13 | 1013.0 |
| 20260510072526 | 84 | 290 | 3.0 | 7.0 | 0.00 | 0.00 | 0.00 | 12 | 1012.9 |
| 20260510072021 | 84 | 292 | 3.0 | 10.0 | 0.00 | 0.00 | 0.00 | 12 | 1012.9 |
| 20260510071517 | 85 | 281 | 5.0 | 10.0 | 0.00 | 0.00 | 0.00 | 12 | 1012.9 |
| 20260510071013 | 85 | 297 | 4.0 | 10.0 | 0.00 | 0.00 | 0.00 | 12 | 1013.0 |
| 20260510070529 | 85 | 275 | 4.0 | 10.0 | 0.00 | 0.00 | 0.00 | 12 | 1013.0 |
| 20260510070036 | 85 | 282 | 6.0 | 14.0 | 0.00 | 0.00 | 0.00 | 12 | 1012.9 |
| 20260510065521 | 85 | 277 | 7.0 | 14.0 | 0.00 | 0.00 | 0.00 | 12 | 1012.9 |
| 20260510065017 | 85 | 276 | 7.0 | 14.0 | 0.00 | 0.00 | 0.00 | 12 | 1012.9 |
| 20260510064513 | 85 | 262 | 7.0 | 21.0 | 0.00 | 0.00 | 0.00 | 12 | 1013.0 |
| 20260510064028 | 85 | 268 | 7.0 | 21.0 | 0.00 | 0.00 | 0.00 | 12 | 1012.9 |
| 20260510063524 | 85 | 275 | 7.0 | 15.0 | 0.00 | 0.00 | 0.00 | 12 | 1012.9 |
| 20260510063020 | 85 | 239 | 9.0 | 18.0 | 0.00 | 0.00 | 0.00 | 12 | 1012.8 |
| 20260510062516 | 86 | 260 | 7.0 | 18.0 | 0.00 | 0.00 | 0.00 | 12 | 1012.8 |
| 20260510062015 | 86 | 277 | 10.0 | 16.0 | 0.00 | 0.00 | 0.00 | 12 | 1012.7 |
| 20260510061511 | 85 | 286 | 8.0 | 15.0 | 0.00 | 0.00 | 0.00 | 12 | 1012.6 |
| 20260510061027 | 85 | 269 | 8.0 | 16.0 | 0.00 | 0.00 | 0.00 | 12 | 1012.6 |
| 20260510060523 | 86 | 273 | 9.0 | 16.0 | 0.00 | 0.00 | 0.00 | 12 | 1012.7 |
| 20260510060031 | 86 | 258 | 6.0 | 13.0 | 0.00 | 0.00 | 0.00 | 12 | 1012.6 |
| 20260510055512 | 85 | 263 | 6.0 | 13.0 | 0.00 | 0.00 | 0.00 | 12 | 1012.4 |
| 20260510055027 | 85 | 279 | 5.0 | 11.0 | 0.00 | 0.00 | 0.00 | 12 | 1012.4 |
| 20260510054523 | 85 | 295 | 4.0 | 10.0 | 0.00 | 0.00 | 0.00 | 12 | 1012.4 |
| 20260510054022 | 85 | 275 | 5.0 | 10.0 | 0.00 | 0.00 | 0.00 | 12 | 1012.4 |
| 20260510053518 | 83 | 287 | 3.0 | 6.0 | 0.00 | 0.00 | 0.00 | 14 | 1012.3 |
| 20260510053014 | 82 | 289 | 3.0 | 5.0 | 0.00 | 0.00 | 0.00 | 14 | 1012.4 |
| 20260510052529 | 82 | 287 | 2.0 | 4.0 | 0.00 | 0.00 | 0.00 | 15 | 1012.1 |
| 20260510052025 | 81 | 287 | 2.0 | 4.0 | 0.00 | 0.00 | 0.00 | 15 | 1012.1 |
| 20260510051520 | 81 | 287 | 2.0 | 4.0 | 0.00 | 0.00 | 0.00 | 15 | 1012.0 |
| 20260510051016 | 81 | 287 | 2.0 | 4.0 | 0.00 | 0.00 | 0.00 | 15 | 1012.0 |
| 20260510050516 | 82 | 287 | 2.0 | 4.0 | 0.00 | 0.00 | 0.00 | 15 | 1012.0 |
| 20260510050043 | 83 | 287 | 2.0 | 4.0 | 0.00 | 0.00 | 0.00 | 14 | 1011.9 |
| 20260510045523 | 84 | 287 | 2.0 | 6.0 | 0.00 | 0.00 | 0.00 | 14 | 1011.9 |
| 20260510045018 | 84 | 287 | 3.0 | 6.0 | 0.00 | 0.00 | 0.00 | 14 | 1011.9 |
| 20260510044514 | 85 | 287 | 3.0 | 7.0 | 0.00 | 0.00 | 0.00 | 14 | 1011.8 |
| 20260510044030 | 84 | 282 | 3.0 | 7.0 | 0.00 | 0.00 | 0.00 | 14 | 1011.7 |
| 20260510043526 | 84 | 279 | 3.0 | 6.0 | 0.00 | 0.00 | 0.00 | 14 | 1011.8 |
| 20260510043026 | 84 | 279 | 4.0 | 6.0 | 0.00 | 0.00 | 0.00 | 14 | 1011.6 |
| 20260510042522 | 85 | 283 | 3.0 | 4.0 | 0.00 | 0.00 | 0.00 | 13 | 1011.6 |
| 20260510042018 | 84 | 282 | 2.0 | 4.0 | 0.00 | 0.00 | 0.00 | 13 | 1011.4 |
| 20260510041514 | 85 | 281 | 2.0 | 4.0 | 0.00 | 0.00 | 0.00 | 13 | 1011.4 |
| 20260510041029 | 85 | 281 | 2.0 | 4.0 | 0.00 | 0.00 | 0.00 | 13 | 1011.3 |
| 20260510040525 | 84 | 282 | 3.0 | 6.0 | 0.00 | 0.00 | 0.00 | 13 | 1011.3 |
| 20260510040033 | 85 | 282 | 3.0 | 6.0 | 0.00 | 0.00 | 0.00 | 13 | 1011.3 |
| 20260510035519 | 85 | 284 | 3.0 | 4.0 | 0.00 | 0.00 | 0.00 | 13 | 1011.1 |
| 20260510035014 | 85 | 283 | 2.0 | 4.0 | 0.00 | 0.00 | 0.00 | 13 | 1011.2 |
| 20260510034530 | 86 | 283 | 3.0 | 4.0 | 0.00 | 0.00 | 0.00 | 12 | 1011.1 |
| 20260510034026 | 86 | 283 | 3.0 | 4.0 | 0.00 | 0.00 | 0.00 | 12 | 1011.0 |
| 20260510033521 | 86 | 285 | 3.0 | 6.0 | 0.00 | 0.00 | 0.00 | 12 | 1011.0 |
| 20260510033017 | 87 | 283 | 3.0 | 6.0 | 0.00 | 0.00 | 0.00 | 12 | 1010.9 |
| 20260510032533 | 87 | 287 | 3.0 | 7.0 | 0.00 | 0.00 | 0.00 | 12 | 1010.8 |
| 20260510032028 | 87 | 289 | 3.0 | 7.0 | 0.00 | 0.00 | 0.00 | 12 | 1010.7 |
| 20260510031528 | 87 | 315 | 3.0 | 6.0 | 0.00 | 0.00 | 0.00 | 12 | 1010.5 |
| 20260510031024 | 85 | 329 | 2.0 | 5.0 | 0.00 | 0.00 | 0.00 | 13 | 1010.6 |
| 20260510030519 | 85 | 329 | 3.0 | 5.0 | 0.00 | 0.00 | 0.00 | 13 | 1010.4 |
| 20260510030046 | 85 | 331 | 3.0 | 5.0 | 0.00 | 0.00 | 0.00 | 13 | 1010.3 |
| 20260510025528 | 86 | 331 | 2.0 | 3.0 | 0.00 | 0.00 | 0.00 | 13 | 1010.3 |
| 20260510025024 | 86 | 331 | 2.0 | 3.0 | 0.00 | 0.00 | 0.00 | 12 | 1010.2 |
| 20260510024519 | 87 | 331 | 2.0 | 3.0 | 0.00 | 0.00 | 0.00 | 12 | 1010.1 |
| 20260510024019 | 88 | 331 | 3.0 | 3.0 | 0.00 | 0.00 | 0.00 | 11 | 1010.1 |
| 20260510023515 | 89 | 331 | 1.0 | 3.0 | 0.00 | 0.00 | 0.00 | 11 | 1010.0 |
| 20260510023030 | 89 | 331 | 2.0 | 3.0 | 0.00 | 0.00 | 0.00 | 11 | 1010.0 |
| 20260510022527 | 90 | 331 | 1.0 | 2.0 | 0.00 | 0.00 | 0.00 | 11 | 1009.9 |
| 20260510022023 | 91 | 331 | 1.0 | 2.0 | 0.00 | 0.00 | 0.00 | 10 | 1009.9 |
| 20260510021519 | 91 | 331 | 1.0 | 3.0 | 0.00 | 0.00 | 0.00 | 10 | 1009.9 |
| 20260510021014 | 91 | 331 | 1.0 | 5.0 | 0.00 | 0.00 | 0.00 | 10 | 1009.8 |
| 20260510020514 | 92 | 327 | 2.0 | 5.0 | 0.00 | 0.00 | 0.00 | 10 | 1009.9 |
| 20260510020042 | 92 | 324 | 1.0 | 5.0 | 0.00 | 0.00 | 0.00 | 10 | 1009.6 |
| 20260510015523 | 92 | 329 | 1.0 | 5.0 | 0.00 | 0.00 | 0.00 | 10 | 1009.6 |
| 20260510015019 | 93 | 329 | 2.0 | 11.0 | 0.00 | 0.00 | 0.00 | 10 | 1009.6 |
| 20260510014515 | 93 | 17 | 3.0 | 11.0 | 0.00 | 0.00 | 0.00 | 9 | 1009.6 |
| 20260510014031 | 93 | 322 | 1.0 | 5.0 | 0.00 | 0.00 | 0.00 | 9 | 1009.6 |
| 20260510013526 | 94 | 295 | 3.0 | 5.0 | 0.00 | 0.00 | 0.00 | 9 | 1009.6 |
| 20260510013026 | 94 | 303 | 1.0 | 4.0 | 0.00 | 0.00 | 0.00 | 9 | 1009.6 |
| 20260510012522 | 94 | 302 | 2.0 | 6.0 | 0.00 | 0.00 | 0.00 | 9 | 1009.6 |
| 20260510012017 | 94 | 310 | 2.0 | 7.0 | 0.00 | 0.00 | 0.00 | 9 | 1009.7 |
| 20260510011513 | 94 | 358 | 2.0 | 9.0 | 0.00 | 0.00 | 0.00 | 9 | 1009.6 |
| 20260510011029 | 95 | 340 | 2.0 | 9.0 | 0.00 | 0.00 | 0.00 | 9 | 1009.6 |
| 20260510010526 | 95 | 346 | 2.0 | 10.0 | 0.00 | 0.00 | 0.00 | 9 | 1009.6 |
| 20260510010033 | 95 | 316 | 2.0 | 10.0 | 0.00 | 0.00 | 0.00 | 9 | 1009.5 |
| 20260510005518 | 96 | 288 | 4.0 | 8.0 | 0.00 | 0.00 | 0.00 | 9 | 1009.6 |
| 20260510005014 | 96 | 288 | 2.0 | 6.0 | 0.00 | 0.00 | 0.00 | 8 | 1009.6 |
| 20260510004530 | 96 | 346 | 2.0 | 5.0 | 0.00 | 0.00 | 0.00 | 8 | 1009.6 |
| 20260510004026 | 97 | 303 | 2.0 | 9.0 | 0.00 | 0.00 | 0.00 | 8 | 1009.5 |
| 20260510003522 | 97 | 279 | 4.0 | 9.0 | 0.00 | 0.00 | 0.00 | 8 | 1009.6 |
| 20260510003018 | 97 | 293 | 3.0 | 7.0 | 0.00 | 0.00 | 0.00 | 8 | 1009.6 |
| 20260510002514 | 96 | 352 | 3.0 | 9.0 | 0.00 | 0.00 | 0.00 | 9 | 1009.6 |
| 20260510002013 | 96 | 293 | 3.0 | 9.0 | 0.00 | 0.00 | 0.00 | 9 | 1009.7 |
| 20260510001530 | 96 | 3 | 4.0 | 8.0 | 0.00 | 0.00 | 0.00 | 9 | 1009.7 |
| 20260510001026 | 97 | 317 | 3.0 | 7.0 | 0.00 | 0.00 | 0.00 | 9 | 1009.6 |
| 20260510000522 | 98 | 294 | 4.0 | 13.0 | 0.00 | 0.00 | 0.00 | 8 | 1009.7 |
| 20260510000029 | 98 | 298 | 4.0 | 13.0 | 0.00 | 0.00 | 0.00 | 8 | 1009.7 |
| 20260509235530 | 98 | 265 | 5.0 | 12.0 | 0.00 | 0.00 | 0.00 | 8 | 1009.7 |
| 20260509235026 | 99 | 266 | 4.0 | 12.0 | 0.00 | 0.00 | 0.00 | 8 | 1009.9 |
| 20260509234522 | 98 | 300 | 2.0 | 7.0 | 0.00 | 0.00 | 0.00 | 9 | 1009.8 |
| 20260509234022 | 98 | 245 | 2.0 | 9.0 | 0.00 | 0.00 | 0.00 | 8 | 1009.8 |
| 20260509233517 | 98 | 275 | 5.0 | 9.0 | 0.00 | 0.00 | 0.00 | 8 | 1009.9 |
| 20260509233013 | 98 | 4 | 3.0 | 8.0 | 0.00 | 0.00 | 0.00 | 9 | 1010.0 |
| 20260509232529 | 97 | 36 | 3.0 | 10.0 | 0.00 | 0.00 | 0.00 | 8 | 1010.0 |
| 20260509232024 | 97 | 359 | 3.0 | 10.0 | 0.00 | 0.00 | 0.00 | 8 | 1010.0 |
| 20260509231519 | 98 | 323 | 2.0 | 7.0 | 0.00 | 0.00 | 0.00 | 9 | 1010.1 |
| 20260509231016 | 98 | 11 | 2.0 | 6.0 | 0.00 | 0.00 | 0.00 | 8 | 1010.1 |
| 20260509230516 | 100 | 273 | 3.0 | 11.0 | 0.00 | 0.00 | 0.00 | 8 | 1010.3 |
| 20260509230043 | 100 | 271 | 5.0 | 11.0 | 0.00 | 0.00 | 0.00 | 8 | 1010.3 |
| 20260509225524 | 100 | 260 | 5.0 | 14.0 | 0.00 | 0.00 | 0.00 | 8 | 1010.3 |
| 20260509225019 | 100 | 277 | 8.0 | 13.0 | 0.00 | 0.00 | 0.00 | 8 | 1010.4 |
| 20260509224516 | 100 | 324 | 4.0 | 12.0 | 0.00 | 0.00 | 0.00 | 8 | 1010.5 |
| 20260509224032 | 99 | 290 | 5.0 | 12.0 | 0.00 | 0.00 | 0.00 | 8 | 1010.5 |
| 20260509223528 | 99 | 271 | 4.0 | 9.0 | 0.00 | 0.00 | 0.00 | 9 | 1010.6 |
| 20260509223027 | 99 | 339 | 3.0 | 7.0 | 0.00 | 0.00 | 0.00 | 9 | 1010.6 |
| 20260509222523 | 98 | 339 | 2.0 | 11.0 | 0.00 | 0.00 | 0.00 | 9 | 1010.6 |
| 20260509222019 | 98 | 356 | 3.0 | 11.0 | 0.00 | 0.00 | 0.00 | 9 | 1010.8 |
| 20260509221515 | 99 | 309 | 2.0 | 7.0 | 0.00 | 0.00 | 0.00 | 9 | 1010.7 |
| 20260509221031 | 99 | 76 | 3.0 | 11.0 | 0.00 | 0.00 | 0.00 | 8 | 1010.9 |
| 20260509220526 | 99 | 270 | 2.0 | 13.0 | 0.00 | 0.00 | 0.00 | 9 | 1010.9 |
| 20260509220035 | 99 | 291 | 7.0 | 12.0 | 0.00 | 0.00 | 0.00 | 9 | 1011.1 |
| 20260509215520 | 98 | 294 | 3.0 | 11.0 | 0.00 | 0.00 | 0.00 | 9 | 1011.1 |
| 20260509215016 | 96 | 113 | 1.0 | 11.0 | 0.00 | 0.00 | 0.00 | 9 | 1011.2 |
| 20260509214531 | 97 | 65 | 5.0 | 11.0 | 0.00 | 0.00 | 0.00 | 9 | 1011.3 |
| 20260509214027 | 100 | 289 | 5.0 | 12.0 | 0.00 | 0.00 | 0.00 | 9 | 1011.4 |
| 20260509213523 | 100 | 294 | 6.0 | 12.0 | 0.00 | 0.00 | 0.00 | 9 | 1011.4 |
| 20260509213020 | 99 | 11 | 3.0 | 8.0 | 0.00 | 0.00 | 0.00 | 9 | 1011.4 |
| 20260509212516 | 100 | 349 | 3.0 | 8.0 | 0.00 | 0.00 | 0.00 | 9 | 1011.6 |
| 20260509212016 | 99 | 320 | 4.0 | 9.0 | 0.00 | 0.00 | 0.00 | 9 | 1011.6 |
| 20260509211531 | 99 | 292 | 4.0 | 9.0 | 0.00 | 0.00 | 0.00 | 9 | 1011.8 |
| 20260509211028 | 97 | 313 | 4.0 | 8.0 | 0.00 | 0.00 | 0.00 | 9 | 1012.0 |
| 20260509210524 | 97 | 353 | 3.0 | 8.0 | 0.00 | 0.00 | 0.00 | 9 | 1012.0 |
| 20260509210031 | 99 | 6 | 2.0 | 8.0 | 0.00 | 0.00 | 0.00 | 9 | 1012.1 |
| 20260509205513 | 99 | 353 | 3.0 | 10.0 | 0.00 | 0.00 | 0.00 | 9 | 1012.2 |
| 20260509205029 | 98 | 285 | 2.0 | 10.0 | 0.00 | 0.00 | 0.00 | 9 | 1012.1 |
| 20260509204524 | 97 | 38 | 2.0 | 10.0 | 0.00 | 0.00 | 0.00 | 9 | 1012.2 |
| 20260509204025 | 97 | 11 | 5.0 | 10.0 | 0.00 | 0.00 | 0.00 | 9 | 1012.4 |
| 20260509203520 | 98 | 71 | 3.0 | 9.0 | 0.00 | 0.00 | 0.00 | 9 | 1012.4 |
| 20260509203016 | 98 | 12 | 4.0 | 9.0 | 0.00 | 0.00 | 0.00 | 9 | 1012.6 |
| 20260509202532 | 98 | 279 | 2.0 | 9.0 | 0.00 | 0.00 | 0.00 | 9 | 1012.8 |
| 20260509202028 | 99 | 320 | 5.0 | 10.0 | 0.00 | 0.00 | 0.00 | 9 | 1012.7 |
| 20260509201524 | 98 | 280 | 4.0 | 10.0 | 0.00 | 0.00 | 0.00 | 9 | 1012.7 |
| 20260509201019 | 99 | 289 | 4.0 | 10.0 | 0.00 | 0.00 | 0.00 | 9 | 1012.9 |
| 20260509200519 | 99 | 229 | 2.0 | 12.0 | 0.00 | 0.00 | 0.00 | 9 | 1013.0 |
| 20260509200047 | 99 | 260 | 4.0 | 11.0 | 0.00 | 0.00 | 0.00 | 9 | 1013.1 |
| 20260509195528 | 99 | 253 | 3.0 | 9.0 | 0.00 | 0.00 | 0.00 | 9 | 1013.1 |
| 20260509195024 | 99 | 275 | 4.0 | 15.0 | 0.00 | 0.00 | 0.00 | 9 | 1013.0 |
| 20260509194520 | 97 | 309 | 5.0 | 15.0 | 0.00 | 0.00 | 0.00 | 9 | 1013.1 |
| 20260509194016 | 97 | 356 | 3.0 | 10.0 | 0.00 | 0.00 | 0.00 | 9 | 1013.2 |
| 20260509193532 | 100 | 257 | 3.0 | 11.0 | 0.00 | 0.00 | 0.00 | 10 | 1013.3 |
| 20260509193031 | 98 | 279 | 4.0 | 11.0 | 0.00 | 0.00 | 0.00 | 10 | 1013.2 |
| 20260509192527 | 97 | 267 | 4.0 | 10.0 | 0.00 | 0.00 | 0.00 | 10 | 1013.3 |
| 20260509192023 | 97 | 303 | 5.0 | 8.0 | 0.00 | 0.00 | 0.00 | 10 | 1013.4 |
| 20260509191519 | 96 | 355 | 3.0 | 10.0 | 0.00 | 0.00 | 0.00 | 10 | 1013.4 |
| 20260509191015 | 96 | 33 | 5.0 | 11.0 | 0.00 | 0.00 | 0.00 | 10 | 1013.3 |
| 20260509190531 | 97 | 350 | 3.0 | 5.0 | 0.00 | 0.00 | 0.00 | 10 | 1013.4 |
| 20260509190038 | 97 | 331 | 2.0 | 11.0 | 0.00 | 0.00 | 0.00 | 11 | 1013.5 |
| 20260509185523 | 98 | 360 | 4.0 | 11.0 | 0.00 | 0.00 | 0.00 | 10 | 1013.6 |
| 20260509185019 | 97 | 258 | 3.0 | 9.0 | 0.00 | 0.00 | 0.00 | 11 | 1013.7 |
| 20260509184515 | 97 | 271 | 5.0 | 9.0 | 0.00 | 0.00 | 0.00 | 10 | 1013.8 |
| 20260509184031 | 95 | 281 | 1.0 | 9.0 | 0.00 | 0.00 | 0.00 | 11 | 1013.8 |
| 20260509183526 | 97 | 271 | 4.0 | 8.0 | 0.00 | 0.00 | 0.00 | 10 | 1013.8 |
| 20260509183022 | 95 | 345 | 3.0 | 8.0 | 0.00 | 0.00 | 0.00 | 11 | 1013.8 |
| 20260509182518 | 95 | 306 | 2.0 | 8.0 | 0.00 | 0.00 | 0.00 | 11 | 1014.0 |
| 20260509182018 | 96 | 267 | 2.0 | 6.0 | 0.00 | 0.00 | 0.00 | 11 | 1014.1 |
| 20260509181514 | 93 | 38 | 4.0 | 6.0 | 0.00 | 0.00 | 0.00 | 11 | 1014.2 |
| 20260509181030 | 94 | 349 | 2.0 | 8.0 | 0.00 | 0.00 | 0.00 | 12 | 1014.3 |
| 20260509180526 | 93 | 350 | 2.0 | 8.0 | 0.00 | 0.00 | 0.00 | 12 | 1014.4 |
| 20260509180033 | 94 | 15 | 2.0 | 5.0 | 0.00 | 0.00 | 0.00 | 11 | 1014.4 |
| 20260509175514 | 92 | 308 | 1.0 | 6.0 | 0.00 | 0.00 | 0.00 | 12 | 1014.5 |
| 20260509175030 | 91 | 13 | 3.0 | 7.0 | 0.00 | 0.00 | 0.00 | 13 | 1014.7 |
| 20260509174526 | 91 | 44 | 3.0 | 7.0 | 0.00 | 0.00 | 0.00 | 13 | 1014.7 |
| 20260509174026 | 92 | 354 | 3.0 | 10.0 | 0.00 | 0.00 | 0.00 | 13 | 1014.7 |
| 20260509173522 | 93 | 21 | 4.0 | 10.0 | 0.00 | 0.00 | 0.00 | 13 | 1014.6 |
| 20260509173018 | 92 | 320 | 1.0 | 6.0 | 0.00 | 0.00 | 0.00 | 13 | 1014.6 |
| 20260509172513 | 92 | 305 | 2.0 | 6.0 | 0.00 | 0.00 | 0.00 | 14 | 1014.7 |
| 20260509172029 | 91 | 358 | 3.0 | 6.0 | 0.00 | 0.00 | 0.00 | 14 | 1014.7 |
| 20260509171525 | 90 | 351 | 0.0 | 9.0 | 0.00 | 0.00 | 0.00 | 15 | 1014.8 |
| 20260509171022 | 91 | 351 | 3.0 | 9.0 | 0.00 | 0.00 | 0.00 | 14 | 1014.8 |
| 20260509170522 | 90 | 332 | 2.0 | 4.0 | 0.00 | 0.00 | 0.00 | 15 | 1014.8 |
| 20260509170029 | 90 | 23 | 1.0 | 7.0 | 0.00 | 0.00 | 0.00 | 15 | 1014.7 |
| 20260509165530 | 89 | 25 | 1.0 | 7.0 | 0.00 | 0.00 | 0.00 | 16 | 1014.8 |
| 20260509165026 | 90 | 15 | 1.0 | 4.0 | 0.00 | 0.00 | 0.00 | 16 | 1014.9 |
| 20260509164522 | 88 | 15 | 2.0 | 8.0 | 0.00 | 0.00 | 0.00 | 16 | 1014.9 |
| 20260509164018 | 87 | 23 | 3.0 | 8.0 | 0.00 | 0.00 | 0.00 | 17 | 1014.9 |
| 20260509163514 | 88 | 319 | 1.0 | 3.0 | 0.00 | 0.00 | 0.00 | 18 | 1014.9 |
| 20260509163015 | 87 | 334 | 1.0 | 3.0 | 0.00 | 0.00 | 0.00 | 18 | 1015.0 |
| 20260509162531 | 86 | 46 | 1.0 | 3.0 | 0.00 | 0.00 | 0.00 | 19 | 1015.1 |
| 20260509162027 | 86 | 33 | 0.0 | 3.0 | 0.00 | 0.00 | 0.00 | 20 | 1015.1 |
| 20260509161523 | 85 | 33 | 2.0 | 4.0 | 0.00 | 0.00 | 0.00 | 19 | 1015.0 |
| 20260509161018 | 85 | 7 | 2.0 | 4.0 | 0.00 | 0.00 | 0.00 | 19 | 1015.1 |